TimeCDT,TemperatureF,Dew PointF,Humidity,Sea Level PressureIn,VisibilityMPH,Wind Direction,Wind SpeedMPH,Gust SpeedMPH,PrecipitationIn,Events,Conditions,WindDirDegrees,DateUTC
12:56 AM,75.9,64.0,67,30.22,10.0,South,9.2,-,N/A,,Clear,190,2013-07-17 05:56:00
1:56 AM,75.9,64.0,67,30.22,10.0,SSW,6.9,-,N/A,,Clear,210,2013-07-17 06:56:00
2:56 AM,75.0,64.0,69,30.22,10.0,SSW,5.8,-,N/A,,Clear,210,2013-07-17 07:56:00
3:56 AM,73.9,64.0,71,30.22,10.0,SSW,6.9,-,N/A,,Clear,200,2013-07-17 08:56:00
4:56 AM,73.0,64.0,73,30.22,10.0,SSW,5.8,-,N/A,,Clear,200,2013-07-17 09:56:00
5:56 AM,73.0,64.0,73,30.24,10.0,SSW,6.9,-,N/A,,Partly Cloudy,200,2013-07-17 10:56:00
6:56 AM,73.9,64.9,73,30.24,10.0,SSW,5.8,-,N/A,,Scattered Clouds,210,2013-07-17 11:56:00
7:56 AM,75.9,66.0,71,30.25,10.0,SSW,6.9,-,N/A,,Scattered Clouds,200,2013-07-17 12:56:00
8:56 AM,79.0,66.0,64,30.25,10.0,SSW,6.9,-,N/A,,Clear,200,2013-07-17 13:56:00
9:56 AM,82.0,66.0,58,30.25,10.0,SSW,5.8,-,N/A,,Clear,210,2013-07-17 14:56:00
10:56 AM,84.9,66.0,53,30.24,10.0,SSW,9.2,-,N/A,,Clear,200,2013-07-17 15:56:00
11:56 AM,87.1,66.0,49,30.24,10.0,South,9.2,-,N/A,,Partly Cloudy,190,2013-07-17 16:56:00
12:56 PM,88.0,66.9,49,30.23,10.0,SSW,10.4,17.3,N/A,,Partly Cloudy,200,2013-07-17 17:56:00
1:56 PM,90.0,66.9,46,30.21,10.0,South,11.5,24.2,N/A,,Scattered Clouds,190,2013-07-17 18:56:00
2:56 PM,89.1,64.9,45,30.19,10.0,SSW,13.8,21.9,N/A,,Scattered Clouds,200,2013-07-17 19:56:00
3:56 PM,90.0,64.9,43,30.17,10.0,SSW,12.7,20.7,N/A,,Scattered Clouds,210,2013-07-17 20:56:00
4:56 PM,90.0,66.0,45,30.16,10.0,South,17.3,23.0,N/A,,Scattered Clouds,190,2013-07-17 21:56:00
5:56 PM,89.1,64.9,45,30.14,10.0,SSW,15.0,24.2,N/A,,Scattered Clouds,200,2013-07-17 22:56:00
6:56 PM,88.0,66.0,48,30.13,10.0,SSW,17.3,-,N/A,,Partly Cloudy,200,2013-07-17 23:56:00
7:56 PM,86.0,66.0,51,30.12,10.0,South,16.1,24.2,N/A,,Partly Cloudy,190,2013-07-18 00:56:00
8:56 PM,84.0,66.0,55,30.11,10.0,South,10.4,-,N/A,,Clear,180,2013-07-18 01:56:00
9:56 PM,82.0,66.0,58,30.12,10.0,South,12.7,-,N/A,,Partly Cloudy,190,2013-07-18 02:56:00
10:56 PM,81.0,66.0,60,30.11,10.0,South,10.4,-,N/A,,Clear,190,2013-07-18 03:56:00
11:56 PM,79.0,66.9,66,30.10,10.0,South,10.4,-,N/A,,Clear,190,2013-07-18 04:56:00